DW2917 Weather Reports


time (UTC)temp
C
wind
direction
speed
KPH
gust
KPH
rain 1hr
cm
rain 24hr
cm
rain mn
cm
humidity
%
barometer
mb
20260505093008 13 215 4.8 0.0 0.00 0.00 0.00 69 1010.0
20260505091507 13 218 6.4 0.0 0.00 0.00 0.00 70 1009.9
20260505090009 14 224 6.4 0.0 0.00 0.00 0.00 68 1009.9
20260505084503 14 203 4.8 0.0 0.00 0.00 0.00 68 1009.9
20260505083004 14 233 4.8 0.0 0.00 0.00 0.00 67 1009.9
20260505081608 15 225 4.8 0.0 0.00 0.00 0.00 66 1009.9
20260505080059 15 211 4.8 0.0 0.00 0.00 0.00 66 1009.7
20260505074559 15 217 4.8 0.0 0.00 0.00 0.00 65 1009.6
20260505073100 15 220 4.8 0.0 0.00 0.00 0.00 65 1009.5
20260505071559 15 227 4.8 0.0 0.00 0.00 0.00 66 1009.5
20260505070059 15 219 3.2 0.0 0.00 0.00 0.00 66 1009.5
20260505064556 15 215 3.2 0.0 0.00 0.00 0.00 66 1009.5
20260505063059 15 215 4.8 0.0 0.00 0.00 0.00 65 1009.6
20260505061600 15 218 3.2 0.0 0.00 0.00 0.00 65 1009.6
20260505060052 15 215 4.8 0.0 0.00 0.00 0.00 64 1009.6
20260505054550 16 198 4.8 0.0 0.00 0.00 0.00 63 1009.6
20260505053045 16 213 6.4 0.0 0.00 0.00 0.00 62 1009.7
20260505051541 16 215 6.4 0.0 0.00 0.00 0.00 61 1009.9
20260505050116 16 214 8.0 0.0 0.00 0.00 0.00 60 1009.8
20260505041539 17 218 6.4 0.0 0.00 0.00 0.00 57 1009.5
20260505040019 17 225 6.4 0.0 0.00 0.00 0.00 57 1009.6
20260505034518 16 223 6.4 0.0 0.00 0.00 0.00 57 1009.6
20260505033018 17 239 8.0 0.0 0.00 0.00 0.00 56 1009.6
20260505031518 17 215 6.4 0.0 0.00 0.00 0.00 55 1009.6
20260505030019 17 218 4.8 0.0 0.00 0.00 0.00 55 1009.6
20260505024520 17 261 4.8 0.0 0.00 0.00 0.00 54 1009.6
20260505023017 17 217 3.2 0.0 0.00 0.00 0.00 54 1009.6
20260505021516 17 219 3.2 0.0 0.00 0.00 0.00 54 1009.6
20260505020019 17 211 4.8 0.0 0.00 0.00 0.00 52 1009.6
20260505014517 17 211 3.2 0.0 0.00 0.00 0.00 52 1009.7
20260505013019 18 208 4.8 0.0 0.00 0.00 0.00 50 1009.3
20260505011521 18 215 3.2 0.0 0.00 0.00 0.00 49 1009.1
20260505010014 18 201 4.8 0.0 0.00 0.00 0.00 46 1009.1
20260505004522 19 208 4.8 0.0 0.00 0.00 0.00 45 1009.0
20260505003012 19 222 4.8 0.0 0.00 0.00 0.00 45 1009.1
20260505001512 20 183 4.8 0.0 0.00 0.00 0.00 44 1008.9
20260505000021 20 198 8.0 0.0 0.00 0.00 0.00 43 1008.9
20260504234510 20 186 9.7 0.0 0.00 0.00 0.00 41 1008.6
20260504233012 21 210 9.7 0.0 0.00 0.00 0.00 40 1008.6
20260504231508 21 189 9.7 0.0 0.00 0.00 0.00 39 1008.7
20260504230020 22 180 8.0 0.0 0.00 0.00 0.00 38 1008.7
20260504224506 21 198 8.0 0.0 0.00 0.00 0.00 41 1008.7
20260504223006 22 205 9.7 0.0 0.00 0.00 0.00 37 1008.7
20260504221505 22 223 11.3 0.0 0.00 0.00 0.00 37 1008.7
20260504220005 22 214 8.0 0.0 0.00 0.00 0.00 37 1008.8
20260504214504 22 224 8.0 0.0 0.00 0.00 0.00 41 1008.7
20260504213013 22 182 11.3 0.0 0.00 0.00 0.00 38 1008.7
20260504211508 23 200 8.0 0.0 0.00 0.00 0.00 36 1008.7
20260504210003 22 258 9.7 0.0 0.00 0.00 0.00 38 1008.7
20260504204604 22 245 9.7 0.0 0.00 0.00 0.00 38 1008.7
20260504203122 22 182 6.4 0.0 0.00 0.00 0.00 37 1008.7
20260504201559 22 334 11.3 0.0 0.00 0.00 0.00 41 1009.2
20260504200058 22 215 8.0 0.0 0.00 0.00 0.00 43 1009.3
20260504194605 22 180 6.4 0.0 0.00 0.00 0.00 39 1009.4
20260504193103 22 201 8.0 0.0 0.00 0.00 0.00 41 1009.9
20260504191552 22 191 9.7 0.0 0.00 0.00 0.00 38 1010.3
20260504190109 22 293 8.0 0.0 0.00 0.00 0.00 36 1010.4
20260504184559 21 218 9.7 0.0 0.00 0.00 0.00 36 1010.7
20260504183046 21 241 8.0 0.0 0.00 0.00 0.00 38 1010.9
20260504181545 21 214 9.7 0.0 0.00 0.00 0.00 38 1011.0
20260504180047 21 180 9.7 0.0 0.00 0.00 0.00 40 1011.1
20260504174543 21 329 8.0 0.0 0.00 0.00 0.00 36 1011.3
20260504173048 21 221 8.0 0.0 0.00 0.00 0.00 38 1011.4
20260504171540 20 308 6.4 0.0 0.00 0.00 0.00 37 1011.5
20260504140107 15 227 6.4 0.0 0.00 0.00 0.00 47 1013.3
20260504100105 6 305 0.0 0.0 0.00 0.00 0.00 82 1013.9